Location: Gro� Glienicke
(52.4675°N, 13.1079°E)
Time: 17:46:13
(UTC+00:00)

Cosmos 1076 Rocket - Pass Details

Date: 06 July 2020
Orbit: 589 x 613 km, 82.5° (Epoch: 12 August)

Event Time Altitude Azimuth Distance (km) Brightness Sun altitude
Exits shadow 21:47:31 15° 191° (S) 1,621 5.2 -12.7°
Maximum altitude 21:51:01 87° 281° (W) 607 3.5 -12.9°
Drops below altitude 10° 21:55:20 10° 10° (N) 1,943 7.1 -13.1°
Sets 21:57:32 0° 11° (N) 2,847 8.1 -13.2°
